SCP
0 0 0 0 0 0 0 0 0 0 0 0 0 0 0 0 0 0 0 0 0 0 0 0 0 0 0 0 0 0 0 0 0 0 0 0 0 0 0 0 0 0 0
0 0 0 0 0 0 0 0 0 0 0 0 0 0 0 0 0 0 0 0 0 0 0 0 0 0 0 0 0 0 0 0 0 0 0 0 0 0 0 0 0 0 0
0 0 0 0 0 0 0 0 0 0 0 0 0 0 0 0 0 0 0 0 0 0 0 0 0 0 0 0 0 0 0 0 0 0 0 0 0 0 0 0 0 0 0
0 0 0 0 0 0 0 0 0 0 0 0 0 0 0 0 0 0 0 0 0 0 0 0 0 0 0 0 0 0 0 0 0 0 0 0 0 0 0 0 0 0 0
0 0 0 0 0 0 0 0 0 0 0 0 0 0 0 0 0 0 0 0 0 0 0 0 0 0 0 0 0 0 0 0 0 0 0 0 0 0 0 0 0 0 0
0 0 0 0 0 0 0 0 0 0 0 0 0 0 0 0 0 0 0 0 0 0 0 0 0 0 0 0 0 0 0 0 0 0 0 0 0 0 0 0 0 0 0
0 0 0 0 0 0 0 0 0 0 0 0 0 0 0 0 0 0 0 0 0 0 0 0 0 0 0 0 0 0 0 0 0 0 0 0 0 0 0 0 0 0 0
0 0 0 0 0 0 0 0 0 0 0 0 0 0 0 0 0 0 0 0 0 0 0 0 0 0 0 0 0 0 0 0 0 0 0 0 0 0 0 0 0 0 0
0 0 0 0 0 0 0 0 0 0 0 0 0 0 0 0 0 0 0 0 0 0 0 0 0 0 0 0 0 0 0 0 0 0 0 0 0 0 0 0 0 0 0
0 0 0 0 0 0 0 0 0 0 0 0 0 0 0 0 0 0 0 0 0 0 0 0 0 0 0 0 0 0 0 0 0 0 0 0 0 0 0 0 0 0 0
0 0 0 0 0 0 0 0 0 0 0 0 0 0 0 0 0 0 0 0 0 0 0 0 0 0 0 0 0 0 0 0 0 0 0 0 0 0 0 0 0 0 0
0 0 0 0 0 0 0 0 -0 -0 0 0 0 0 0 0 0 0 0 0 0 0 0 0 0 0 0 0 0 0 0 0 0 0 0 0 0 0 0 0 0 0 0
0 0 0 0 0 0 0 0 0 0 0 0 0 0 0 0 0 0 0 0 0 0 0 0 0 0 0 0 0 0 0 0 0 0 0 0 0 0 0 0 0 0 0
0 0 0 0 0 0 0 0 0 0 0 0 0 0 0 0 0 0 0 0 0 0 0 0 0 0 0 0 0 0 0 0 0 0 0 0 0 0 0 0 0 0 0
0 0 0 0 0 0 0 0 0 0 0 0 0 0 0 0 0 0 0 0 0 0 0 0 0 0 0 0 0 0 0 0 0 0 0 0 0 0 0 0 0 0 0
0 0 0 0 0 0 0 0 0 0 0 0 0 0 0 0 0 0 0 0 0 0 0 0 0 0 0 0 0 0 0 0 0 0 0 0 0 0 0 0 0 0 0
0 0 0 0 0 0 0 0 0 0 0 0 0 0 0 0 0 0 0 0 0 0 0 0 0 0 0 0 0 0 0 0 0 0 0 0 0 0 0 0 0 0 0
-0 0 0 0 0 0 0 0 0 0 0 0 0 0 0 0 0 0 0 0 0 0 0 0 0 0 0 0 0 0 0 0 0 0 0 0 0 0 0 0 0 0 0
-0 -0 0 0 0 0 0 0 0 0 0 0 0 0 0 0 0 0 0 0 0 0 0 0 0 0 0 0 0 0 0 0 0 0 0 0 0 0 0 0 0 0 0
0 0 0 -0 -0 0 0 0 0 0 0 0 0 0 0 0 0 0 0 0 0 0 0 0 0 0 0 0 0 0 0 0 0 0 0 0 0 0 0 0 0 0 0
0 0 0 0 0 -0 -0 0 0 0 0 0 0 0 0 0 -0 -0 0 0 0 0 0 0 0 0 0 0 0 0 0 0 0 0 0 0 0 0 0 0 0 0 0
-0 -0 -0 -0 -0 -0 -0 0 0 0 0 0 0 0 0 0 0 0 0 0 0 0 0 0 0 0 0 0 0 0 0 0 0 0 0 0 0 0 0 0 0 0 0
-0 -0 -0 -0 0 0 0 0 0 0 0 0 0 0 0 0 0 0 0 0 0 0 0 0 0 0 0 0 0 0 0 0 0 0 0 0 0 0 0 0 0 0 0
-0 -0 0 0 0 0 0 0 0 0 -0 0 0 0 -0 0 0 0 0 0 0 0 0 0 0 0 0 0 0 0 0 0 0 0 0 0 0 0 0 0 0 0 0
0 0 0 0 0 0 0 0 0 0 0 0 0 0 -0 -0 -0 -0 0 0 0 0 0 0 0 0 0 0 0 0 0 0 0 0 0 0 0 0 0 0 0 0 0
0 0 0 0 0 0 0 0 0 0 -0 -0 -0 -0 -0 -0 -0 -0 0 0 0 0 0 0 0 0 0 0 0 0 0 0 0 0 0 0 0 0 0 0 0 0 0
Wind_Speed_500mb
49 50 54 56 63 69 69 71 72 80 85 82 80 76 76 73 69 64 61 61 60 56 52 46 40 35 32 30 32 32 28 31 31 32 30 27 26 28 29 26 23 19 16
51 49 56 61 66 74 81 80 77 76 87 86 83 79 76 76 72 70 65 63 64 63 59 55 49 43 38 39 39 39 35 36 35 34 27 17 28 35 35 33 29 25 21
54 47 54 69 70 76 83 89 79 73 81 85 82 80 76 75 79 79 72 71 71 69 66 61 56 51 46 44 42 43 41 39 39 41 21 14 14 25 38 40 36 32 30
67 55 55 66 68 78 83 87 79 74 78 84 88 86 95 94 90 84 78 77 75 73 71 67 64 59 56 52 48 47 46 46 43 47 47 33 18 14 13 40 43 41 37
74 78 60 67 79 74 81 83 79 80 82 86 91 90 88 91 86 86 86 83 78 77 75 74 72 68 64 61 54 54 55 55 52 50 49 52 43 33 20 15 37 45 42
73 78 78 80 70 73 74 76 80 83 86 93 95 95 93 88 90 91 90 86 81 81 81 81 80 78 71 69 62 60 58 59 58 56 58 55 48 46 41 30 30 31 38
61 72 76 80 91 81 70 72 76 84 89 92 98 99 95 92 89 91 88 87 88 88 86 84 87 85 80 74 69 68 65 66 66 66 64 59 58 53 44 40 38 36 40
52 67 76 79 86 99 93 76 72 81 86 92 97 99 98 97 95 92 89 90 91 88 84 84 86 87 84 79 78 75 73 74 72 72 70 68 68 61 55 49 44 40 40
32 55 68 76 80 89 100 97 86 74 79 87 91 97 102 101 101 100 93 90 89 89 87 81 84 84 86 86 84 82 82 80 78 76 74 79 75 69 60 56 52 46 38
10 20 41 59 67 71 87 97 99 91 80 82 88 89 99 102 104 102 98 94 90 92 88 86 84 82 85 88 88 89 87 86 84 83 83 85 79 74 65 59 61 55 54
18 5 18 38 45 60 71 81 84 85 89 86 81 86 93 100 102 105 103 94 91 89 91 88 87 86 85 88 91 92 91 90 88 90 91 85 85 75 76 65 69 63 59
29 26 15 8 35 44 48 61 63 68 74 79 82 82 82 85 94 99 102 97 93 92 88 88 86 87 88 90 92 92 94 96 97 96 93 90 87 86 80 71 66 65 60
43 40 41 33 19 12 29 38 44 50 55 60 66 73 74 76 82 87 95 93 90 93 91 90 86 86 89 94 93 96 98 99 102 101 96 94 97 91 84 72 68 67 64
46 47 52 54 43 32 16 15 31 36 40 42 45 56 65 67 68 70 79 78 79 84 84 85 87 88 88 92 93 93 100 107 110 108 103 99 103 89 86 74 71 69 68
47 47 48 54 50 49 42 33 22 10 22 29 34 42 53 56 56 60 63 66 67 73 72 78 85 90 91 94 99 101 102 104 109 112 122 106 90 82 85 76 67 67 71
47 47 47 46 46 46 43 40 39 34 23 9 20 36 47 48 50 55 53 51 57 59 62 68 75 83 89 91 93 92 100 92 97 101 99 91 70 84 86 69 62 63 65
43 44 44 40 36 37 37 36 36 31 25 23 19 14 5 13 28 42 49 55 62 64 62 62 69 77 85 94 100 99 94 95 94 96 86 82 78 79 82 72 68 63 62
38 41 42 38 32 28 24 24 26 25 25 25 23 18 14 14 13 13 16 20 27 36 44 49 51 57 68 71 69 64 55 51 52 59 63 67 73 82 77 74 70 69 71
33 36 38 38 36 35 32 29 22 23 22 20 20 23 24 23 20 21 24 26 31 32 33 36 36 37 44 35 36 34 43 53 50 53 59 72 77 75 72 72 73 73 69
34 37 40 42 45 47 44 40 38 34 29 25 23 26 29 33 30 23 24 27 33 39 45 45 42 38 53 45 43 40 43 46 56 70 70 65 68 67 71 72 71 72 70
31 34 37 42 45 45 45 46 48 49 45 38 33 27 25 27 35 39 43 48 49 56 52 53 48 46 52 46 43 44 56 60 70 67 64 66 64 61 66 68 71 70 59
26 30 33 37 41 42 42 44 45 47 47 43 41 37 34 33 34 36 39 45 48 49 52 52 53 57 58 59 56 51 50 53 53 56 62 62 64 63 61 63 60 62 59
20 23 28 32 37 39 41 43 46 46 47 49 49 47 43 39 35 35 38 42 42 46 45 46 45 40 44 48 44 37 36 40 46 51 53 54 59 64 60 64 66 64 65
13 14 18 23 29 34 37 40 43 46 48 50 53 54 53 50 45 38 36 38 42 45 47 45 42 42 39 40 40 41 40 42 48 48 46 53 58 64 68 66 65 60 56
10 10 14 18 21 26 32 35 38 41 44 46 50 53 56 56 55 49 43 40 36 36 41 42 45 45 44 40 40 51 49 49 48 52 57 62 67 68 66 68 65 60 55
8 6 9 14 20 27 32 36 41 46 50 53 56 60 61 63 61 57 47 33 36 34 30 32 39 41 45 40 41 48 51 56 58 61 66 72 74 77 76 66 56 52 50
Wind_Direction_500mb
249 239 239 234 229 225 218 221 219 214 214 214 214 214 214 213 215 214 215 213 214 215 216 219 221 222 226 226 219 217 218 212 206 199 203 208 212 215 214 213 211 210 212
248 231 230 230 217 222 227 229 223 217 216 217 217 219 220 219 220 220 218 217 217 218 219 221 225 226 227 226 224 224 222 218 213 202 201 210 225 224 221 219 217 220 221
248 237 225 224 215 215 225 225 224 216 218 218 218 221 223 223 221 222 220 219 220 221 222 225 228 230 232 235 235 230 229 228 218 212 199 195 211 215 223 222 222 224 226
245 244 234 233 217 228 229 229 231 225 218 218 220 221 224 224 224 225 223 223 223 224 224 226 229 231 234 238 238 237 234 233 232 222 222 226 212 186 214 226 224 225 228
244 240 233 239 235 232 227 230 231 229 225 220 221 223 226 230 231 228 228 228 226 227 228 227 229 232 235 240 242 240 236 237 236 236 235 232 233 228 214 221 224 225 227
244 239 233 242 243 237 236 233 231 230 227 226 224 226 227 229 230 231 232 230 230 230 230 231 231 232 235 239 241 244 242 243 242 240 241 243 241 239 230 227 231 230 229
243 237 229 226 238 236 234 235 234 234 231 229 228 228 230 232 236 236 234 232 231 231 232 232 233 233 234 238 242 245 246 246 242 243 246 244 244 247 245 237 239 233 235
257 241 229 224 231 238 239 239 238 236 233 232 231 230 232 233 235 239 238 237 236 237 238 236 237 238 239 239 242 246 248 248 247 247 245 247 245 244 245 245 242 234 237
262 242 234 226 229 235 241 240 241 241 238 238 235 233 233 233 235 238 240 241 241 241 240 242 242 244 243 242 243 246 248 249 250 249 249 248 245 240 241 246 246 239 238
301 249 233 230 228 231 243 242 242 241 247 245 240 237 238 237 237 239 241 241 242 242 242 242 243 245 246 246 244 246 248 249 251 251 251 251 247 242 241 241 248 242 236
21 339 232 226 226 229 235 248 246 246 244 243 245 243 241 241 240 240 244 244 245 245 245 244 244 244 245 246 245 246 249 251 252 252 251 251 251 238 236 233 240 239 234
39 39 57 170 212 217 233 246 251 250 249 249 246 246 245 243 244 244 246 246 246 248 249 248 247 246 246 247 247 246 248 250 250 251 252 251 250 240 233 231 238 243 234
44 44 58 70 84 184 219 226 236 241 243 244 248 249 247 247 248 250 250 249 249 250 250 250 249 248 247 247 248 248 249 252 252 252 251 250 248 238 228 228 230 237 232
41 44 52 60 65 69 101 190 223 229 238 244 249 252 254 253 252 254 254 255 252 253 255 256 256 253 252 251 251 250 250 252 252 251 250 249 248 234 226 220 225 232 229
30 36 40 49 54 61 61 70 86 168 226 232 237 248 254 258 261 259 260 262 262 257 256 256 255 254 254 252 251 250 249 253 256 255 254 245 244 240 227 217 220 227 227
27 33 41 45 44 46 48 54 58 58 57 123 216 234 243 248 252 263 268 267 265 262 260 258 260 258 255 253 253 253 258 254 259 261 262 247 239 230 223 211 212 229 227
28 35 35 34 35 35 27 33 41 45 45 48 47 41 2 253 247 249 253 258 264 267 265 260 260 261 262 261 260 259 257 253 253 258 252 237 231 225 214 203 208 219 220
37 40 40 42 45 37 23 19 16 20 25 28 23 13 3 347 336 321 304 292 288 280 275 271 270 272 272 267 267 265 257 252 242 243 241 228 226 223 213 202 209 215 219
46 48 50 52 53 47 36 28 16 11 0 356 353 342 345 348 332 325 311 303 297 291 290 286 282 284 283 272 269 260 262 237 244 242 237 234 224 212 207 206 213 217 221
55 57 57 59 59 55 50 47 45 43 35 17 349 320 304 294 297 314 312 302 296 299 293 291 282 284 272 256 241 238 238 231 239 239 239 227 216 207 209 208 214 218 219
53 52 52 53 53 47 41 39 37 35 32 24 15 2 337 312 296 288 280 272 268 267 266 268 274 273 270 270 259 254 251 244 240 237 230 218 208 207 204 209 214 220 218
42 43 44 45 43 39 36 34 32 30 26 22 18 10 357 343 329 313 296 286 279 275 270 269 265 259 255 253 250 251 255 249 241 229 221 211 210 203 204 211 214 215 214
29 35 37 35 32 28 25 24 24 21 18 17 16 13 7 358 341 323 312 303 294 281 272 275 280 280 271 258 248 248 258 256 237 222 219 218 205 200 206 210 215 211 210
15 33 37 30 25 21 19 19 19 17 16 16 14 12 7 3 356 344 327 312 303 297 291 282 277 280 276 266 255 240 233 237 235 224 207 205 203 208 212 210 209 214 218
1 22 25 20 19 23 23 20 17 17 17 14 12 12 10 6 359 356 350 338 323 311 299 290 281 280 275 273 263 255 237 232 225 222 208 202 206 209 205 206 208 208 215
348 8 5 4 10 14 11 10 11 12 11 10 10 9 9 8 6 359 354 353 339 331 318 303 291 280 280 275 267 255 249 239 227 215 209 209 207 206 205 204 204 206 209
Wind_Speed_850mb
49 50 54 56 63 69 69 71 72 80 85 82 80 76 76 73 69 64 61 61 60 56 52 46 40 35 32 30 32 32 28 31 31 32 30 27 26 28 29 26 23 19 16
51 49 56 61 66 74 81 80 77 76 87 86 83 79 76 76 72 70 65 63 64 63 59 55 49 43 38 39 39 39 35 36 35 34 27 17 28 35 35 33 29 25 21
54 47 54 69 70 76 83 89 79 73 81 85 82 80 76 75 79 79 72 71 71 69 66 61 56 51 46 44 42 43 41 39 39 41 21 14 14 25 38 40 36 32 30
67 55 55 66 68 78 83 87 79 74 78 84 88 86 95 94 90 84 78 77 75 73 71 67 64 59 56 52 48 47 46 46 43 47 47 33 18 14 13 40 43 41 37
74 78 60 67 79 74 81 83 79 80 82 86 91 90 88 91 86 86 86 83 78 77 75 74 72 68 64 61 54 54 55 55 52 50 49 52 43 33 20 15 37 45 42
73 78 78 80 70 73 74 76 80 83 86 93 95 95 93 88 90 91 90 86 81 81 81 81 80 78 71 69 62 60 58 59 58 56 58 55 48 46 41 30 30 31 38
61 72 76 80 91 81 70 72 76 84 89 92 98 99 95 92 89 91 88 87 88 88 86 84 87 85 80 74 69 68 65 66 66 66 64 59 58 53 44 40 38 36 40
52 67 76 79 86 99 93 76 72 81 86 92 97 99 98 97 95 92 89 90 91 88 84 84 86 87 84 79 78 75 73 74 72 72 70 68 68 61 55 49 44 40 40
32 55 68 76 80 89 100 97 86 74 79 87 91 97 102 101 101 100 93 90 89 89 87 81 84 84 86 86 84 82 82 80 78 76 74 79 75 69 60 56 52 46 38
10 20 41 59 67 71 87 97 99 91 80 82 88 89 99 102 104 102 98 94 90 92 88 86 84 82 85 88 88 89 87 86 84 83 83 85 79 74 65 59 61 55 54
18 5 18 38 45 60 71 81 84 85 89 86 81 86 93 100 102 105 103 94 91 89 91 88 87 86 85 88 91 92 91 90 88 90 91 85 85 75 76 65 69 63 59
29 26 15 8 35 44 48 61 63 68 74 79 82 82 82 85 94 99 102 97 93 92 88 88 86 87 88 90 92 92 94 96 97 96 93 90 87 86 80 71 66 65 60
43 40 41 33 19 12 29 38 44 50 55 60 66 73 74 76 82 87 95 93 90 93 91 90 86 86 89 94 93 96 98 99 102 101 96 94 97 91 84 72 68 67 64
46 47 52 54 43 32 16 15 31 36 40 42 45 56 65 67 68 70 79 78 79 84 84 85 87 88 88 92 93 93 100 107 110 108 103 99 103 89 86 74 71 69 68
47 47 48 54 50 49 42 33 22 10 22 29 34 42 53 56 56 60 63 66 67 73 72 78 85 90 91 94 99 101 102 104 109 112 122 106 90 82 85 76 67 67 71
47 47 47 46 46 46 43 40 39 34 23 9 20 36 47 48 50 55 53 51 57 59 62 68 75 83 89 91 93 92 100 92 97 101 99 91 70 84 86 69 62 63 65
43 44 44 40 36 37 37 36 36 31 25 23 19 14 5 13 28 42 49 55 62 64 62 62 69 77 85 94 100 99 94 95 94 96 86 82 78 79 82 72 68 63 62
38 41 42 38 32 28 24 24 26 25 25 25 23 18 14 14 13 13 16 20 27 36 44 49 51 57 68 71 69 64 55 51 52 59 63 67 73 82 77 74 70 69 71
33 36 38 38 36 35 32 29 22 23 22 20 20 23 24 23 20 21 24 26 31 32 33 36 36 37 44 35 36 34 43 53 50 53 59 72 77 75 72 72 73 73 69
34 37 40 42 45 47 44 40 38 34 29 25 23 26 29 33 30 23 24 27 33 39 45 45 42 38 53 45 43 40 43 46 56 70 70 65 68 67 71 72 71 72 70
31 34 37 42 45 45 45 46 48 49 45 38 33 27 25 27 35 39 43 48 49 56 52 53 48 46 52 46 43 44 56 60 70 67 64 66 64 61 66 68 71 70 59
26 30 33 37 41 42 42 44 45 47 47 43 41 37 34 33 34 36 39 45 48 49 52 52 53 57 58 59 56 51 50 53 53 56 62 62 64 63 61 63 60 62 59
20 23 28 32 37 39 41 43 46 46 47 49 49 47 43 39 35 35 38 42 42 46 45 46 45 40 44 48 44 37 36 40 46 51 53 54 59 64 60 64 66 64 65
13 14 18 23 29 34 37 40 43 46 48 50 53 54 53 50 45 38 36 38 42 45 47 45 42 42 39 40 40 41 40 42 48 48 46 53 58 64 68 66 65 60 56
10 10 14 18 21 26 32 35 38 41 44 46 50 53 56 56 55 49 43 40 36 36 41 42 45 45 44 40 40 51 49 49 48 52 57 62 67 68 66 68 65 60 55
8 6 9 14 20 27 32 36 41 46 50 53 56 60 61 63 61 57 47 33 36 34 30 32 39 41 45 40 41 48 51 56 58 61 66 72 74 77 76 66 56 52 50
Wind_Direction_850mb
249 239 239 234 229 225 218 221 219 214 214 214 214 214 214 213 215 214 215 213 214 215 216 219 221 222 226 226 219 217 218 212 206 199 203 208 212 215 214 213 211 210 212
248 231 230 230 217 222 227 229 223 217 216 217 217 219 220 219 220 220 218 217 217 218 219 221 225 226 227 226 224 224 222 218 213 202 201 210 225 224 221 219 217 220 221
248 237 225 224 215 215 225 225 224 216 218 218 218 221 223 223 221 222 220 219 220 221 222 225 228 230 232 235 235 230 229 228 218 212 199 195 211 215 223 222 222 224 226
245 244 234 233 217 228 229 229 231 225 218 218 220 221 224 224 224 225 223 223 223 224 224 226 229 231 234 238 238 237 234 233 232 222 222 226 212 186 214 226 224 225 228
244 240 233 239 235 232 227 230 231 229 225 220 221 223 226 230 231 228 228 228 226 227 228 227 229 232 235 240 242 240 236 237 236 236 235 232 233 228 214 221 224 225 227
244 239 233 242 243 237 236 233 231 230 227 226 224 226 227 229 230 231 232 230 230 230 230 231 231 232 235 239 241 244 242 243 242 240 241 243 241 239 230 227 231 230 229
243 237 229 226 238 236 234 235 234 234 231 229 228 228 230 232 236 236 234 232 231 231 232 232 233 233 234 238 242 245 246 246 242 243 246 244 244 247 245 237 239 233 235
257 241 229 224 231 238 239 239 238 236 233 232 231 230 232 233 235 239 238 237 236 237 238 236 237 238 239 239 242 246 248 248 247 247 245 247 245 244 245 245 242 234 237
262 242 234 226 229 235 241 240 241 241 238 238 235 233 233 233 235 238 240 241 241 241 240 242 242 244 243 242 243 246 248 249 250 249 249 248 245 240 241 246 246 239 238
301 249 233 230 228 231 243 242 242 241 247 245 240 237 238 237 237 239 241 241 242 242 242 242 243 245 246 246 244 246 248 249 251 251 251 251 247 242 241 241 248 242 236
21 339 232 226 226 229 235 248 246 246 244 243 245 243 241 241 240 240 244 244 245 245 245 244 244 244 245 246 245 246 249 251 252 252 251 251 251 238 236 233 240 239 234
39 39 57 170 212 217 233 246 251 250 249 249 246 246 245 243 244 244 246 246 246 248 249 248 247 246 246 247 247 246 248 250 250 251 252 251 250 240 233 231 238 243 234
44 44 58 70 84 184 219 226 236 241 243 244 248 249 247 247 248 250 250 249 249 250 250 250 249 248 247 247 248 248 249 252 252 252 251 250 248 238 228 228 230 237 232
41 44 52 60 65 69 101 190 223 229 238 244 249 252 254 253 252 254 254 255 252 253 255 256 256 253 252 251 251 250 250 252 252 251 250 249 248 234 226 220 225 232 229
30 36 40 49 54 61 61 70 86 168 226 232 237 248 254 258 261 259 260 262 262 257 256 256 255 254 254 252 251 250 249 253 256 255 254 245 244 240 227 217 220 227 227
27 33 41 45 44 46 48 54 58 58 57 123 216 234 243 248 252 263 268 267 265 262 260 258 260 258 255 253 253 253 258 254 259 261 262 247 239 230 223 211 212 229 227
28 35 35 34 35 35 27 33 41 45 45 48 47 41 2 253 247 249 253 258 264 267 265 260 260 261 262 261 260 259 257 253 253 258 252 237 231 225 214 203 208 219 220
37 40 40 42 45 37 23 19 16 20 25 28 23 13 3 347 336 321 304 292 288 280 275 271 270 272 272 267 267 265 257 252 242 243 241 228 226 223 213 202 209 215 219
46 48 50 52 53 47 36 28 16 11 0 356 353 342 345 348 332 325 311 303 297 291 290 286 282 284 283 272 269 260 262 237 244 242 237 234 224 212 207 206 213 217 221
55 57 57 59 59 55 50 47 45 43 35 17 349 320 304 294 297 314 312 302 296 299 293 291 282 284 272 256 241 238 238 231 239 239 239 227 216 207 209 208 214 218 219
53 52 52 53 53 47 41 39 37 35 32 24 15 2 337 312 296 288 280 272 268 267 266 268 274 273 270 270 259 254 251 244 240 237 230 218 208 207 204 209 214 220 218
42 43 44 45 43 39 36 34 32 30 26 22 18 10 357 343 329 313 296 286 279 275 270 269 265 259 255 253 250 251 255 249 241 229 221 211 210 203 204 211 214 215 214
29 35 37 35 32 28 25 24 24 21 18 17 16 13 7 358 341 323 312 303 294 281 272 275 280 280 271 258 248 248 258 256 237 222 219 218 205 200 206 210 215 211 210
15 33 37 30 25 21 19 19 19 17 16 16 14 12 7 3 356 344 327 312 303 297 291 282 277 280 276 266 255 240 233 237 235 224 207 205 203 208 212 210 209 214 218
1 22 25 20 19 23 23 20 17 17 17 14 12 12 10 6 359 356 350 338 323 311 299 290 281 280 275 273 263 255 237 232 225 222 208 202 206 209 205 206 208 208 215
348 8 5 4 10 14 11 10 11 12 11 10 10 9 9 8 6 359 354 353 339 331 318 303 291 280 280 275 267 255 249 239 227 215 209 209 207 206 205 204 204 206 209